Back to catalog

MIDAS 5 DEB

AlivePO
NORAD 274·DEBRIS·🇺🇸 United States

Launched Apr 9, 1962 from Vandenberg Space Force Base

Loading…

Next Passes (next 24 hours)

TLE

FreshSource: Space-Track

Epoch: Sep 14, 2026, 14:39 UTC

1 00274U 62010D   26257.61050551 -.00000048  00000-0 -10901-1 0  9993
2 00274  86.6708 320.7270 0345368  60.4080 303.0773  9.39363623209185

Track MIDAS 5 DEB in real time with AllMySat

Download on the App Store